Regional Weather Roundup
Issued by NWS

Home | Current Version | Previous Version | Graphics & Text | Print | Product List | Glossary On
Versions: 1 2 3 4 5 6 7 8 9 10 11 12 13 14 15 16 17 18 19 20 21 22 23 24 25 26 27 28 29 30 31 32 33 34 35 36 37 38 39 40 41 42 43 44 45 46 47 48 49 50
000
ASUS44 KMEG 271300
RWRTN
TENNESSEE HOURLY STATE WEATHER ROUNDUP
NATIONAL WEATHER SERVICE MEMPHIS TN
800 AM CDT SAT MAY 27 2017

TNZ002-004-019-021-049-052-054-088>092-271400-
WEST TENNESSEE

CITY           SKY/WX    TMP DP  RH WIND       PRES   REMARKS
MEMPHIS INTL   CLOUDY    76  71  85 SW9       29.94R
NWS MEMPHIS      N/A     76 N/A N/A MISG        N/A
JACKSON        CLOUDY    74  70  87 S9        29.92S
DYERSBURG        N/A    N/A N/A N/A MISG        N/A  THUNDER
$$

TNZ008-025-027-028-033-062-065-066-271400-
NORTH MIDDLE TENNESSEE

CITY           SKY/WX    TMP DP  RH WIND       PRES   REMARKS
NASHVILLE      CLOUDY    73  63  70 SW6       29.97R
CLARKSVILLE    CLOUDY    72  64  76 VRB5      29.92F
SMYRNA         CLOUDY    73  65  75 S3        29.98R
CROSSVILLE     CLOUDY    68  61  78 S3        30.03R
$$

TNZ061-075-076-078-094-096-097-271400-
SOUTH MIDDLE TENNESSEE

CITY           SKY/WX    TMP DP  RH WIND       PRES   REMARKS
TULLAHOMA      PTSUNNY   70  61  73 SW7       30.02S
WINCHESTER     CLOUDY    72  64  78 CALM        N/A
MCMINNVILLE    PTSUNNY   72  64  78 SW6       30.01R
$$

TNZ017-018-042-046-047-271400-
NORTHEAST TENNESSEE

CITY           SKY/WX    TMP DP  RH WIND       PRES   REMARKS
TRI CITIES     PTSUNNY   66  60  81 CALM      30.00S
$$

TNZ012-013-036-069-073-074-271400-
CENTRAL EAST TENNESSEE

CITY           SKY/WX    TMP DP  RH WIND       PRES   REMARKS
KNOXVILLE      CLOUDY    71  62  73 W9        30.00R
OAK RIDGE      CLOUDY    71  62  73 CALM      30.01R
GATLINBURG     CLOUDY    73  64  73 CALM      29.99R
$$

TNZ083-085-099-271400-
SOUTHEAST TENNESSEE

CITY           SKY/WX    TMP DP  RH WIND       PRES   REMARKS
CHATTANOOGA    CLOUDY    72  63  73 S5        30.02R
$$

SKY/WX REPORTED AS FAIR MEANS FEW OR NO CLOUDS BELOW
12 THOUSAND FEET.





USA.gov is the U.S. government's official web portal to all federal, state and local government web resources and services.